QPF
0.00 0.00 0.00 0.00 0.00 0.00 0.00 0.00 0.00 0.00 0.00 0.00 0.01 0.01 0.01 0.02 0.03 0.03 0.01 0.01 0.00 0.00 0.00 0.01 0.02 0.01 0.02 0.02 0.02 0.01 0.01 0.01 0.01 0.00 0.00 0.00 0.00 0.00 0.00 0.01 0.01 0.01 0.01 0.00 0.01 0.01 0.01 0.00 0.00
0.00 0.00 0.00 0.00 0.00 0.00 0.00 0.00 0.00 0.00 0.00 0.00 0.00 0.01 0.01 0.02 0.01 0.01 0.01 0.01 0.01 0.01 0.00 0.01 0.01 0.01 0.02 0.02 0.02 0.01 0.01 0.01 0.01 0.00 0.00 0.00 0.00 0.01 0.01 0.01 0.01 0.01 0.01 0.01 0.01 0.01 0.00 0.00 0.00
0.00 0.00 0.00 0.00 0.00 0.00 0.00 0.00 0.00 0.00 0.00 0.00 0.00 0.01 0.02 0.02 0.00 0.00 0.01 0.02 0.01 0.01 0.01 0.02 0.01 0.02 0.03 0.03 0.02 0.01 0.01 0.01 0.01 0.00 0.00 0.01 0.01 0.01 0.01 0.00 0.01 0.01 0.01 0.01 0.01 0.00 0.00 0.00 0.00
0.00 0.00 0.00 0.00 0.00 0.00 0.00 0.00 0.00 0.00 0.00 0.00 0.01 0.01 0.01 0.01 0.01 0.01 0.01 0.03 0.01 0.01 0.02 0.03 0.02 0.02 0.02 0.03 0.02 0.02 0.02 0.02 0.01 0.01 0.00 0.01 0.01 0.01 0.01 0.01 0.01 0.01 0.01 0.01 0.01 0.00 0.01 0.01 0.01
0.00 0.00 0.00 0.00 0.00 0.00 0.00 0.00 0.00 0.00 0.00 0.00 0.00 0.01 0.01 0.01 0.00 0.00 0.01 0.02 0.02 0.02 0.01 0.03 0.03 0.03 0.02 0.02 0.03 0.02 0.02 0.02 0.02 0.02 0.01 0.01 0.01 0.01 0.01 0.01 0.01 0.01 0.01 0.01 0.01 0.00 0.00 0.01 0.01
0.00 0.00 0.00 0.00 0.00 0.00 0.00 0.00 0.00 0.00 0.00 0.00 0.00 0.00 0.01 0.01 0.01 0.01 0.03 0.04 0.02 0.02 0.02 0.03 0.04 0.04 0.04 0.04 0.03 0.03 0.02 0.02 0.02 0.02 0.02 0.01 0.01 0.02 0.01 0.01 0.01 0.01 0.01 0.01 0.01 0.01 0.00 0.01 0.01
0.00 0.00 0.00 0.00 0.00 0.00 0.00 0.00 0.00 0.00 0.00 0.01 0.00 0.00 0.01 0.02 0.03 0.03 0.06 0.07 0.04 0.03 0.03 0.03 0.04 0.04 0.06 0.07 0.06 0.05 0.04 0.04 0.04 0.04 0.03 0.02 0.01 0.01 0.01 0.01 0.01 0.01 0.01 0.01 0.01 0.01 0.00 0.01 0.01
0.00 0.00 0.00 0.00 0.00 0.00 0.00 0.00 0.00 0.00 0.00 0.00 0.00 0.01 0.01 0.03 0.05 0.04 0.09 0.10 0.06 0.05 0.06 0.05 0.06 0.06 0.06 0.06 0.06 0.06 0.06 0.06 0.05 0.04 0.03 0.02 0.02 0.02 0.02 0.02 0.02 0.02 0.02 0.02 0.02 0.01 0.01 0.01 0.01
0.00 0.00 0.00 0.00 0.00 0.00 0.00 0.00 0.00 0.00 0.00 0.00 0.00 0.01 0.01 0.02 0.04 0.04 0.05 0.09 0.05 0.06 0.09 0.10 0.08 0.08 0.08 0.06 0.06 0.07 0.08 0.07 0.06 0.06 0.05 0.05 0.05 0.05 0.04 0.02 0.02 0.03 0.03 0.03 0.03 0.03 0.03 0.02 0.02
0.00 0.00 0.00 0.00 0.00 0.00 0.00 0.00 0.00 0.00 0.00 0.01 0.01 0.01 0.01 0.03 0.05 0.05 0.05 0.05 0.05 0.08 0.12 0.13 0.12 0.10 0.08 0.07 0.09 0.10 0.09 0.08 0.08 0.08 0.08 0.07 0.07 0.07 0.04 0.03 0.04 0.05 0.05 0.04 0.03 0.02 0.02 0.02 0.03
0.00 0.00 0.00 0.00 0.00 0.00 0.00 0.00 0.00 0.00 0.01 0.02 0.02 0.02 0.04 0.05 0.09 0.11 0.13 0.14 0.11 0.11 0.13 0.12 0.11 0.11 0.10 0.11 0.09 0.08 0.08 0.09 0.08 0.09 0.09 0.08 0.07 0.07 0.06 0.08 0.08 0.09 0.07 0.06 0.05 0.04 0.03 0.03 0.03
0.00 0.00 0.00 0.00 0.00 0.00 0.00 0.00 0.00 0.01 0.01 0.02 0.03 0.07 0.11 0.14 0.16 0.21 0.25 0.25 0.18 0.11 0.10 0.11 0.08 0.11 0.11 0.09 0.08 0.07 0.07 0.08 0.09 0.10 0.09 0.10 0.11 0.11 0.10 0.11 0.11 0.12 0.12 0.11 0.08 0.08 0.06 0.05 0.03
0.00 0.00 0.00 0.00 0.00 0.00 0.00 0.00 0.00 0.00 0.01 0.02 0.06 0.14 0.26 0.29 0.32 0.33 0.28 0.29 0.26 0.15 0.10 0.09 0.08 0.09 0.09 0.10 0.07 0.06 0.07 0.07 0.07 0.07 0.08 0.09 0.12 0.13 0.12 0.12 0.11 0.11 0.13 0.13 0.11 0.10 0.09 0.08 0.05
0.00 0.00 0.00 0.00 0.00 0.00 0.00 0.00 0.00 0.01 0.01 0.02 0.06 0.14 0.25 0.35 0.35 0.28 0.26 0.22 0.25 0.18 0.11 0.08 0.08 0.08 0.08 0.08 0.08 0.07 0.07 0.07 0.07 0.07 0.07 0.09 0.11 0.11 0.11 0.10 0.09 0.10 0.10 0.10 0.10 0.11 0.10 0.08 0.07
0.00 0.00 0.00 0.00 0.00 0.00 0.00 0.00 0.00 0.01 0.01 0.01 0.03 0.06 0.13 0.26 0.31 0.21 0.24 0.17 0.16 0.15 0.11 0.09 0.09 0.09 0.08 0.08 0.08 0.06 0.05 0.05 0.06 0.07 0.07 0.08 0.08 0.09 0.08 0.07 0.07 0.08 0.08 0.07 0.06 0.05 0.05 0.05 0.04
0.00 0.00 0.00 0.00 0.00 0.00 0.00 0.01 0.00 0.01 0.01 0.01 0.02 0.05 0.10 0.19 0.20 0.16 0.18 0.14 0.12 0.11 0.10 0.11 0.09 0.08 0.08 0.09 0.08 0.06 0.05 0.04 0.04 0.05 0.05 0.05 0.06 0.06 0.05 0.05 0.05 0.04 0.04 0.04 0.03 0.03 0.03 0.03 0.03
0.00 0.00 0.00 0.00 0.00 0.00 0.00 0.00 0.00 0.01 0.01 0.01 0.02 0.05 0.08 0.14 0.14 0.17 0.19 0.14 0.13 0.11 0.09 0.10 0.12 0.09 0.07 0.08 0.07 0.05 0.06 0.06 0.05 0.05 0.05 0.04 0.04 0.03 0.04 0.03 0.03 0.02 0.03 0.03 0.02 0.02 0.02 0.02 0.01
0.00 0.00 0.00 0.00 0.00 0.00 0.00 0.00 0.00 0.01 0.01 0.02 0.03 0.05 0.08 0.10 0.12 0.17 0.16 0.16 0.16 0.14 0.11 0.11 0.10 0.08 0.06 0.06 0.05 0.04 0.05 0.05 0.05 0.06 0.05 0.03 0.03 0.02 0.02 0.02 0.02 0.02 0.02 0.02 0.02 0.02 0.01 0.01 0.00
0.00 0.00 0.00 0.00 0.00 0.00 0.01 0.00 0.00 0.00 0.01 0.02 0.03 0.04 0.06 0.08 0.12 0.15 0.12 0.14 0.14 0.16 0.13 0.09 0.09 0.07 0.05 0.04 0.04 0.04 0.03 0.03 0.04 0.04 0.03 0.02 0.02 0.01 0.01 0.01 0.02 0.02 0.02 0.02 0.02 0.01 0.00 0.00 0.00
0.00 0.00 0.00 0.00 0.00 0.00 0.01 0.01 0.00 0.01 0.01 0.02 0.02 0.02 0.04 0.08 0.11 0.10 0.10 0.11 0.13 0.15 0.13 0.10 0.08 0.06 0.05 0.04 0.03 0.02 0.02 0.03 0.03 0.02 0.01 0.01 0.01 0.01 0.01 0.01 0.01 0.01 0.02 0.02 0.02 0.01 0.00 0.00 0.00
0.00 0.00 0.00 0.00 0.00 0.00 0.00 0.00 0.00 0.00 0.01 0.02 0.02 0.02 0.03 0.06 0.08 0.07 0.08 0.09 0.10 0.13 0.10 0.06 0.06 0.06 0.04 0.03 0.03 0.03 0.03 0.02 0.02 0.01 0.01 0.01 0.01 0.01 0.01 0.01 0.01 0.02 0.02 0.02 0.02 0.01 0.01 0.00 0.00
0.00 0.00 0.00 0.00 0.00 0.00 0.00 0.01 0.00 0.00 0.01 0.02 0.02 0.02 0.02 0.04 0.05 0.06 0.07 0.06 0.07 0.10 0.07 0.05 0.03 0.03 0.02 0.02 0.02 0.03 0.03 0.02 0.01 0.01 0.01 0.01 0.01 0.02 0.02 0.01 0.02 0.02 0.01 0.01 0.01 0.01 0.01 0.01 0.00
0.00 0.00 0.00 0.00 0.00 0.00 0.00 0.00 0.00 0.00 0.01 0.02 0.02 0.02 0.02 0.02 0.02 0.03 0.05 0.04 0.05 0.07 0.06 0.05 0.03 0.02 0.01 0.02 0.02 0.03 0.03 0.01 0.01 0.01 0.01 0.01 0.01 0.01 0.01 0.01 0.01 0.02 0.01 0.00 0.00 0.01 0.01 0.00 0.00
0.00 0.00 0.00 0.00 0.00 0.01 0.00 0.00 0.00 0.01 0.00 0.01 0.01 0.01 0.01 0.01 0.01 0.02 0.03 0.02 0.03 0.03 0.03 0.04 0.04 0.03 0.01 0.02 0.02 0.03 0.02 0.01 0.00 0.00 0.00 0.00 0.00 0.00 0.01 0.00 0.00 0.00 0.00 0.00 0.00 0.00 0.00 0.00 0.00
0.00 0.00 0.01 0.01 0.01 0.01 0.00 0.00 0.00 0.00 0.00 0.00 0.00 0.00 0.01 0.01 0.01 0.01 0.01 0.01 0.02 0.01 0.01 0.02 0.02 0.02 0.02 0.02 0.02 0.02 0.02 0.01 0.01 0.00 0.00 0.00 0.00 0.00 0.00 0.00 0.00 0.00 0.00 0.00 0.00 0.00 0.00 0.00 0.00
0.00 0.00 0.01 0.01 0.00 0.00 0.00 0.00 0.00 0.00 0.00 0.00 0.00 0.00 0.00 0.00 0.01 0.01 0.01 0.01 0.01 0.01 0.01 0.01 0.01 0.01 0.02 0.02 0.02 0.02 0.02 0.01 0.00 0.00 0.00 0.00 0.00 0.00 0.00 0.00 0.00 0.00 0.00 0.00 0.00 0.00 0.00 0.00 0.00
0.00 0.00 0.00 0.00 0.00 0.00 0.00 0.00 0.00 0.00 0.00 0.00 0.00 0.00 0.00 0.01 0.01 0.01 0.01 0.01 0.00 0.00 0.00 0.01 0.01 0.01 0.02 0.01 0.01 0.01 0.01 0.00 0.00 0.00 0.00 0.00 0.00 0.00 0.00 0.00 0.00 0.00 0.00 0.00 0.00 0.00 0.00 0.00 0.00
0.00 0.00 0.00 0.00 0.01 0.01 0.00 0.00 0.00 0.00 0.00 0.00 0.00 0.00 0.00 0.00 0.00 0.01 0.01 0.01 0.00 0.00 0.00 0.00 0.01 0.01 0.01 0.00 0.00 0.00 0.00 0.00 0.00 0.00 0.00 0.00 0.00 0.00 0.00 0.00 0.00 0.00 0.00 0.00 0.00 0.00 0.00 0.00 0.00
0.00 0.00 0.00 0.00 0.00 0.00 0.00 0.00 0.00 0.00 0.00 0.00 0.00 0.00 0.00 0.00 0.00 0.00 0.00 0.00 0.00 0.00 0.01 0.00 0.00 0.00 0.00 0.00 0.00 0.00 0.00 0.00 0.00 0.00 0.00 0.00 0.00 0.00 0.00 0.00 0.00 0.00 0.00 0.00 0.00 0.00 0.00 0.00 0.00
0.00 0.00 0.00 0.00 0.00 0.00 0.00 0.00 0.00 0.00 0.00 0.00 0.00 0.00 0.00 0.00 0.00 0.00 0.00 0.00 0.00 0.00 0.00 0.00 0.00 0.00 0.00 0.00 0.00 0.00 0.00 0.00 0.00 0.00 0.00 0.00 0.00 0.00 0.00 0.00 0.00 0.00 0.00 0.00 0.00 0.00 0.00 0.00 0.00
MSLP
1011.23 1011.63 1012.05 1012.38 1012.57 1012.57 1012.41 1012.14 1011.87 1011.69 1011.68 1011.85 1012.17 1012.57 1012.94 1013.18 1013.23 1013.09 1012.80 1012.48 1012.23 1012.17 1012.34 1012.75 1013.35 1014.03 1014.69 1015.22 1015.59 1015.78 1015.85 1015.87 1015.92 1016.06 1016.30 1016.62 1016.97 1017.28 1017.51 1017.62 1017.63 1017.58 1017.51 1017.49 1017.53 1017.64 1017.80 1017.96 1018.09
1011.42 1011.89 1012.34 1012.66 1012.79 1012.70 1012.43 1012.04 1011.63 1011.32 1011.18 1011.24 1011.46 1011.79 1012.12 1012.36 1012.45 1012.38 1012.20 1012.01 1011.90 1011.97 1012.26 1012.77 1013.45 1014.18 1014.87 1015.44 1015.84 1016.06 1016.17 1016.22 1016.29 1016.44 1016.66 1016.94 1017.23 1017.48 1017.65 1017.72 1017.71 1017.67 1017.64 1017.66 1017.76 1017.92 1018.12 1018.30 1018.41
1011.66 1012.17 1012.61 1012.89 1012.95 1012.76 1012.38 1011.87 1011.35 1010.93 1010.69 1010.65 1010.79 1011.06 1011.35 1011.58 1011.71 1011.72 1011.65 1011.59 1011.63 1011.83 1012.23 1012.83 1013.57 1014.34 1015.06 1015.64 1016.06 1016.32 1016.46 1016.55 1016.65 1016.80 1017.01 1017.26 1017.50 1017.69 1017.81 1017.84 1017.82 1017.79 1017.80 1017.87 1018.02 1018.22 1018.44 1018.62 1018.72
1011.92 1012.42 1012.82 1013.02 1012.99 1012.71 1012.23 1011.65 1011.05 1010.57 1010.26 1010.16 1010.24 1010.46 1010.72 1010.95 1011.10 1011.18 1011.21 1011.27 1011.44 1011.76 1012.26 1012.93 1013.71 1014.50 1015.22 1015.81 1016.23 1016.51 1016.68 1016.80 1016.93 1017.09 1017.30 1017.53 1017.73 1017.89 1017.97 1017.99 1017.97 1017.97 1018.01 1018.12 1018.31 1018.54 1018.77 1018.93 1018.99
1012.14 1012.59 1012.91 1013.01 1012.88 1012.52 1011.99 1011.37 1010.76 1010.26 1009.94 1009.82 1009.88 1010.06 1010.30 1010.52 1010.69 1010.82 1010.93 1011.09 1011.35 1011.77 1012.35 1013.07 1013.86 1014.65 1015.35 1015.91 1016.33 1016.61 1016.79 1016.94 1017.09 1017.28 1017.50 1017.72 1017.92 1018.06 1018.14 1018.16 1018.16 1018.18 1018.26 1018.41 1018.63 1018.87 1019.08 1019.21 1019.23
1012.32 1012.67 1012.86 1012.86 1012.64 1012.22 1011.67 1011.07 1010.50 1010.06 1009.79 1009.69 1009.76 1009.92 1010.13 1010.34 1010.51 1010.66 1010.82 1011.05 1011.38 1011.87 1012.49 1013.23 1014.01 1014.77 1015.43 1015.96 1016.34 1016.61 1016.79 1016.96 1017.14 1017.35 1017.59 1017.83 1018.04 1018.19 1018.28 1018.33 1018.36 1018.42 1018.53 1018.70 1018.93 1019.15 1019.34 1019.43 1019.41
1012.42 1012.64 1012.70 1012.58 1012.28 1011.84 1011.32 1010.79 1010.32 1009.99 1009.81 1009.78 1009.87 1010.04 1010.24 1010.42 1010.57 1010.71 1010.88 1011.14 1011.51 1012.02 1012.66 1013.40 1014.15 1014.86 1015.46 1015.94 1016.28 1016.52 1016.71 1016.88 1017.08 1017.32 1017.58 1017.85 1018.08 1018.26 1018.39 1018.47 1018.53 1018.63 1018.76 1018.95 1019.17 1019.37 1019.52 1019.57 1019.51
1012.45 1012.52 1012.45 1012.23 1011.88 1011.45 1010.99 1010.58 1010.25 1010.06 1010.00 1010.06 1010.21 1010.39 1010.56 1010.70 1010.82 1010.93 1011.09 1011.33 1011.70 1012.22 1012.84 1013.55 1014.26 1014.91 1015.46 1015.88 1016.18 1016.40 1016.57 1016.75 1016.96 1017.23 1017.52 1017.81 1018.07 1018.29 1018.45 1018.56 1018.66 1018.78 1018.94 1019.12 1019.32 1019.50 1019.61 1019.62 1019.52
1012.39 1012.33 1012.14 1011.84 1011.47 1011.09 1010.73 1010.46 1010.29 1010.26 1010.34 1010.50 1010.70 1010.89 1011.04 1011.14 1011.20 1011.27 1011.38 1011.60 1011.94 1012.42 1013.02 1013.68 1014.34 1014.94 1015.43 1015.81 1016.07 1016.27 1016.43 1016.62 1016.84 1017.12 1017.43 1017.75 1018.04 1018.28 1018.47 1018.61 1018.74 1018.87 1019.03 1019.21 1019.39 1019.54 1019.61 1019.59 1019.47
1012.24 1012.08 1011.80 1011.47 1011.11 1010.80 1010.56 1010.43 1010.44 1010.56 1010.77 1011.03 1011.28 1011.48 1011.61 1011.66 1011.67 1011.68 1011.74 1011.91 1012.20 1012.64 1013.18 1013.79 1014.40 1014.95 1015.40 1015.74 1015.99 1016.17 1016.33 1016.52 1016.76 1017.05 1017.37 1017.70 1018.00 1018.26 1018.47 1018.63 1018.77 1018.91 1019.07 1019.24 1019.40 1019.52 1019.57 1019.52 1019.39
1012.03 1011.79 1011.48 1011.14 1010.83 1010.60 1010.48 1010.51 1010.66 1010.92 1011.24 1011.57 1011.86 1012.07 1012.18 1012.20 1012.16 1012.12 1012.13 1012.24 1012.48 1012.86 1013.34 1013.90 1014.45 1014.96 1015.38 1015.70 1015.94 1016.12 1016.30 1016.49 1016.74 1017.03 1017.35 1017.68 1017.99 1018.25 1018.47 1018.63 1018.78 1018.93 1019.08 1019.24 1019.38 1019.49 1019.52 1019.47 1019.33
1011.76 1011.49 1011.18 1010.87 1010.63 1010.50 1010.50 1010.64 1010.91 1011.28 1011.68 1012.06 1012.38 1012.60 1012.70 1012.70 1012.64 1012.56 1012.52 1012.58 1012.77 1013.09 1013.52 1014.01 1014.52 1015.00 1015.39 1015.71 1015.95 1016.15 1016.33 1016.54 1016.79 1017.08 1017.39 1017.72 1018.01 1018.27 1018.48 1018.65 1018.80 1018.94 1019.09 1019.25 1019.39 1019.49 1019.52 1019.47 1019.34
1011.46 1011.21 1010.93 1010.69 1010.53 1010.49 1010.59 1010.83 1011.17 1011.60 1012.05 1012.46 1012.80 1013.03 1013.14 1013.14 1013.07 1012.98 1012.92 1012.95 1013.09 1013.36 1013.73 1014.17 1014.63 1015.07 1015.45 1015.76 1016.02 1016.23 1016.43 1016.64 1016.89 1017.17 1017.48 1017.79 1018.07 1018.32 1018.52 1018.69 1018.83 1018.98 1019.13 1019.28 1019.43 1019.54 1019.59 1019.56 1019.45
1011.20 1010.98 1010.76 1010.59 1010.51 1010.56 1010.73 1011.02 1011.41 1011.85 1012.31 1012.73 1013.08 1013.33 1013.46 1013.49 1013.45 1013.38 1013.33 1013.34 1013.45 1013.67 1013.98 1014.36 1014.78 1015.18 1015.55 1015.87 1016.13 1016.35 1016.56 1016.78 1017.03 1017.30 1017.58 1017.87 1018.14 1018.37 1018.57 1018.73 1018.89 1019.04 1019.19 1019.36 1019.51 1019.64 1019.72 1019.72 1019.64
1011.00 1010.82 1010.67 1010.58 1010.58 1010.68 1010.90 1011.21 1011.59 1012.02 1012.46 1012.87 1013.22 1013.49 1013.67 1013.76 1013.77 1013.75 1013.73 1013.75 1013.85 1014.02 1014.28 1014.61 1014.97 1015.34 1015.69 1016.00 1016.26 1016.50 1016.71 1016.93 1017.16 1017.41 1017.67 1017.94 1018.19 1018.41 1018.61 1018.78 1018.94 1019.10 1019.27 1019.44 1019.62 1019.77 1019.87 1019.91 1019.87
1010.87 1010.75 1010.66 1010.64 1010.70 1010.85 1011.07 1011.37 1011.71 1012.10 1012.49 1012.88 1013.23 1013.53 1013.77 1013.93 1014.03 1014.08 1014.12 1014.16 1014.25 1014.39 1014.61 1014.88 1015.20 1015.53 1015.85 1016.15 1016.41 1016.64 1016.85 1017.06 1017.27 1017.49 1017.73 1017.97 1018.20 1018.42 1018.62 1018.80 1018.97 1019.14 1019.32 1019.51 1019.70 1019.87 1020.01 1020.08 1020.08
1010.83 1010.75 1010.73 1010.77 1010.87 1011.04 1011.25 1011.50 1011.78 1012.09 1012.42 1012.77 1013.12 1013.45 1013.75 1014.00 1014.20 1014.34 1014.44 1014.53 1014.62 1014.74 1014.92 1015.14 1015.41 1015.71 1016.00 1016.29 1016.54 1016.77 1016.97 1017.16 1017.35 1017.54 1017.75 1017.96 1018.18 1018.39 1018.59 1018.78 1018.96 1019.14 1019.33 1019.53 1019.73 1019.92 1020.07 1020.18 1020.23
1010.85 1010.81 1010.83 1010.92 1011.06 1011.22 1011.40 1011.58 1011.78 1012.00 1012.25 1012.55 1012.88 1013.25 1013.61 1013.96 1014.25 1014.49 1014.67 1014.80 1014.91 1015.03 1015.17 1015.36 1015.59 1015.85 1016.13 1016.40 1016.65 1016.87 1017.06 1017.23 1017.40 1017.56 1017.74 1017.93 1018.13 1018.33 1018.53 1018.72 1018.91 1019.10 1019.29 1019.49 1019.69 1019.88 1020.06 1020.19 1020.27
1010.88 1010.88 1010.95 1011.09 1011.24 1011.39 1011.52 1011.62 1011.71 1011.83 1011.99 1012.23 1012.54 1012.92 1013.35 1013.78 1014.17 1014.50 1014.75 1014.94 1015.07 1015.19 1015.31 1015.48 1015.68 1015.92 1016.19 1016.46 1016.72 1016.94 1017.13 1017.29 1017.43 1017.57 1017.72 1017.88 1018.06 1018.26 1018.46 1018.65 1018.85 1019.03 1019.22 1019.41 1019.60 1019.78 1019.96 1020.11 1020.22
1010.88 1010.92 1011.06 1011.23 1011.40 1011.53 1011.60 1011.62 1011.60 1011.59 1011.66 1011.82 1012.10 1012.49 1012.95 1013.45 1013.93 1014.34 1014.67 1014.91 1015.07 1015.20 1015.33 1015.48 1015.68 1015.92 1016.19 1016.47 1016.75 1016.98 1017.18 1017.34 1017.47 1017.59 1017.72 1017.86 1018.02 1018.20 1018.40 1018.59 1018.79 1018.97 1019.14 1019.31 1019.48 1019.65 1019.82 1019.98 1020.11
1010.82 1010.93 1011.13 1011.35 1011.53 1011.64 1011.65 1011.57 1011.44 1011.32 1011.27 1011.35 1011.58 1011.95 1012.44 1012.99 1013.53 1014.02 1014.42 1014.71 1014.92 1015.07 1015.21 1015.36 1015.57 1015.82 1016.12 1016.43 1016.73 1017.00 1017.22 1017.39 1017.52 1017.64 1017.75 1017.87 1018.02 1018.20 1018.38 1018.57 1018.76 1018.93 1019.09 1019.24 1019.39 1019.54 1019.69 1019.85 1019.99
1010.72 1010.91 1011.17 1011.44 1011.64 1011.73 1011.68 1011.51 1011.26 1011.02 1010.86 1010.85 1011.01 1011.36 1011.85 1012.43 1013.03 1013.58 1014.03 1014.38 1014.63 1014.81 1014.97 1015.15 1015.38 1015.66 1015.99 1016.34 1016.68 1016.99 1017.25 1017.45 1017.59 1017.71 1017.82 1017.94 1018.08 1018.24 1018.42 1018.60 1018.78 1018.94 1019.09 1019.22 1019.35 1019.48 1019.62 1019.77 1019.91
1010.60 1010.88 1011.22 1011.54 1011.76 1011.82 1011.71 1011.45 1011.10 1010.74 1010.47 1010.35 1010.45 1010.75 1011.24 1011.83 1012.46 1013.06 1013.57 1013.97 1014.26 1014.49 1014.68 1014.89 1015.14 1015.46 1015.83 1016.22 1016.61 1016.97 1017.27 1017.50 1017.68 1017.81 1017.92 1018.04 1018.17 1018.32 1018.50 1018.67 1018.85 1019.00 1019.14 1019.26 1019.37 1019.49 1019.61 1019.75 1019.89
1010.50 1010.87 1011.28 1011.65 1011.88 1011.93 1011.76 1011.42 1010.96 1010.50 1010.12 1009.91 1009.94 1010.19 1010.65 1011.24 1011.90 1012.53 1013.08 1013.53 1013.88 1014.14 1014.38 1014.62 1014.91 1015.26 1015.66 1016.09 1016.53 1016.93 1017.27 1017.54 1017.75 1017.90 1018.02 1018.14 1018.28 1018.43 1018.59 1018.77 1018.94 1019.09 1019.23 1019.34 1019.45 1019.55 1019.66 1019.79 1019.93
1010.45 1010.90 1011.38 1011.78 1012.02 1012.04 1011.82 1011.41 1010.87 1010.31 1009.84 1009.55 1009.50 1009.70 1010.12 1010.71 1011.37 1012.03 1012.62 1013.12 1013.51 1013.82 1014.09 1014.37 1014.69 1015.06 1015.50 1015.96 1016.43 1016.87 1017.24 1017.55 1017.78 1017.96 1018.10 1018.23 1018.37 1018.52 1018.68 1018.86 1019.03 1019.18 1019.32 1019.43 1019.54 1019.64 1019.74 1019.86 1019.98
1010.45 1010.97 1011.49 1011.91 1012.14 1012.12 1011.86 1011.39 1010.78 1010.15 1009.61 1009.25 1009.14 1009.29 1009.68 1010.24 1010.90 1011.58 1012.20 1012.73 1013.17 1013.52 1013.84 1014.15 1014.49 1014.89 1015.33 1015.82 1016.30 1016.76 1017.17 1017.50 1017.76 1017.96 1018.12 1018.27 1018.41 1018.56 1018.73 1018.91 1019.08 1019.24 1019.38 1019.50 1019.61 1019.70 1019.80 1019.90 1020.01
1010.48 1011.03 1011.57 1011.98 1012.18 1012.14 1011.84 1011.32 1010.67 1009.99 1009.41 1009.01 1008.85 1008.95 1009.30 1009.84 1010.48 1011.16 1011.80 1012.36 1012.84 1013.23 1013.58 1013.92 1014.29 1014.70 1015.16 1015.64 1016.14 1016.60 1017.02 1017.38 1017.66 1017.89 1018.07 1018.23 1018.39 1018.55 1018.73 1018.91 1019.08 1019.24 1019.39 1019.51 1019.62 1019.71 1019.80 1019.89 1019.98
1010.48 1011.04 1011.55 1011.92 1012.09 1012.01 1011.68 1011.14 1010.48 1009.79 1009.19 1008.77 1008.58 1008.65 1008.96 1009.46 1010.08 1010.74 1011.38 1011.96 1012.46 1012.90 1013.28 1013.66 1014.04 1014.47 1014.93 1015.41 1015.90 1016.37 1016.80 1017.17 1017.48 1017.73 1017.94 1018.13 1018.30 1018.48 1018.66 1018.85 1019.02 1019.19 1019.33 1019.46 1019.56 1019.64 1019.72 1019.79 1019.86
1010.40 1010.92 1011.37 1011.68 1011.79 1011.67 1011.33 1010.80 1010.16 1009.50 1008.92 1008.50 1008.30 1008.34 1008.61 1009.06 1009.64 1010.26 1010.89 1011.47 1012.00 1012.46 1012.88 1013.29 1013.70 1014.14 1014.61 1015.09 1015.58 1016.06 1016.49 1016.87 1017.20 1017.48 1017.73 1017.94 1018.15 1018.35 1018.54 1018.73 1018.91 1019.08 1019.22 1019.33 1019.42 1019.50 1019.56 1019.61 1019.65
1010.20 1010.64 1011.00 1011.22 1011.27 1011.12 1010.78 1010.28 1009.69 1009.09 1008.56 1008.18 1007.99 1008.01 1008.23 1008.62 1009.14 1009.71 1010.30 1010.87 1011.40 1011.89 1012.34 1012.78 1013.23 1013.69 1014.18 1014.67 1015.16 1015.64 1016.09 1016.49 1016.85 1017.16 1017.44 1017.70 1017.94 1018.16 1018.38 1018.58 1018.76 1018.92 1019.04 1019.15 1019.22 1019.28 1019.32 1019.35 1019.37
Thickness
5818 5822 5824 5818 5808 5806 5800 5807 5814 5812 5815 5822 5822 5817 5811 5806 5798 5789 5807 5816 5812 5805 5796 5786 5783 5780 5778 5776 5774 5772 5770 5768 5766 5764 5762 5760 5759 5757 5756 5756 5755 5754 5753 5752 5752 5751 5750 5749 5749
5824 5823 5818 5813 5804 5795 5795 5807 5809 5813 5820 5822 5819 5815 5809 5805 5808 5804 5807 5810 5808 5802 5794 5786 5779 5777 5775 5773 5771 5769 5767 5765 5763 5761 5759 5758 5757 5755 5754 5754 5753 5752 5751 5751 5750 5749 5747 5747 5746
5823 5821 5812 5810 5801 5796 5796 5808 5811 5817 5821 5818 5813 5813 5808 5802 5804 5804 5808 5808 5805 5798 5792 5784 5777 5774 5772 5770 5768 5766 5764 5762 5760 5759 5757 5755 5754 5753 5752 5751 5751 5750 5749 5748 5748 5746 5745 5744 5744
5819 5814 5811 5804 5797 5803 5805 5811 5815 5813 5814 5816 5812 5805 5805 5806 5806 5807 5806 5805 5800 5795 5789 5781 5774 5771 5769 5767 5765 5763 5761 5759 5757 5756 5754 5753 5752 5751 5750 5749 5748 5748 5747 5746 5745 5744 5743 5742 5742
5817 5810 5802 5799 5799 5806 5812 5815 5816 5810 5808 5811 5809 5801 5797 5802 5807 5806 5802 5801 5796 5793 5787 5778 5771 5768 5766 5764 5762 5760 5758 5757 5755 5754 5752 5751 5750 5749 5748 5747 5746 5745 5744 5743 5742 5741 5741 5740 5739
5809 5807 5796 5794 5797 5804 5811 5815 5813 5809 5807 5807 5804 5798 5792 5797 5799 5799 5799 5796 5795 5791 5785 5775 5768 5765 5762 5760 5759 5757 5755 5754 5752 5751 5749 5748 5747 5746 5745 5744 5743 5742 5741 5740 5739 5738 5738 5737 5737
5802 5800 5794 5795 5794 5798 5805 5813 5809 5805 5800 5804 5806 5794 5787 5789 5793 5795 5793 5791 5791 5787 5782 5773 5768 5763 5760 5758 5756 5755 5753 5751 5749 5748 5747 5745 5744 5743 5742 5741 5740 5739 5738 5737 5736 5735 5735 5735 5734
5807 5800 5794 5795 5792 5795 5806 5809 5808 5804 5799 5806 5804 5791 5784 5784 5789 5788 5786 5784 5783 5781 5777 5772 5767 5763 5759 5756 5753 5752 5750 5748 5747 5745 5744 5743 5741 5740 5739 5739 5737 5736 5735 5734 5732 5732 5731 5732 5732
5804 5792 5790 5794 5793 5797 5805 5801 5805 5808 5800 5796 5798 5795 5793 5787 5783 5778 5775 5774 5773 5773 5772 5770 5765 5761 5759 5757 5752 5750 5747 5746 5744 5742 5741 5740 5742 5741 5738 5737 5734 5733 5732 5731 5730 5729 5729 5729 5729
5797 5789 5793 5800 5801 5801 5802 5799 5800 5796 5789 5785 5784 5785 5785 5780 5774 5769 5767 5765 5765 5765 5765 5766 5763 5759 5757 5755 5750 5749 5748 5744 5743 5742 5741 5741 5739 5738 5738 5733 5731 5730 5729 5728 5727 5727 5727 5729 5732
5797 5791 5797 5802 5805 5802 5799 5797 5798 5790 5783 5782 5777 5773 5772 5770 5766 5762 5761 5761 5761 5761 5760 5759 5757 5755 5755 5752 5749 5747 5746 5742 5742 5740 5739 5738 5737 5736 5735 5733 5730 5728 5728 5728 5726 5727 5728 5729 5729
5794 5797 5798 5800 5802 5799 5795 5794 5789 5785 5780 5782 5778 5774 5766 5761 5758 5757 5756 5756 5756 5756 5755 5755 5753 5751 5749 5749 5747 5745 5744 5742 5741 5738 5737 5735 5734 5733 5732 5730 5729 5727 5726 5724 5725 5724 5724 5725 5725
5791 5796 5800 5800 5799 5796 5793 5788 5782 5778 5779 5777 5771 5764 5757 5754 5752 5752 5750 5751 5751 5750 5750 5750 5748 5747 5745 5744 5744 5744 5742 5741 5739 5736 5734 5732 5732 5730 5729 5726 5725 5725 5723 5722 5721 5721 5721 5721 5722
5799 5798 5798 5799 5796 5793 5786 5783 5779 5772 5774 5768 5762 5755 5751 5748 5746 5744 5744 5743 5744 5745 5746 5746 5744 5742 5741 5740 5740 5740 5739 5736 5737 5734 5732 5730 5729 5727 5725 5724 5723 5722 5721 5720 5719 5719 5718 5720 5720
5799 5792 5795 5797 5794 5790 5785 5774 5772 5770 5768 5760 5754 5749 5745 5743 5742 5742 5741 5740 5740 5741 5743 5741 5740 5739 5738 5737 5737 5737 5736 5735 5733 5731 5729 5727 5726 5724 5723 5723 5722 5721 5719 5717 5717 5716 5717 5718 5718
5795 5788 5786 5793 5792 5788 5776 5767 5769 5769 5762 5753 5749 5744 5740 5738 5738 5739 5737 5736 5736 5737 5737 5737 5739 5737 5736 5734 5734 5736 5735 5732 5731 5728 5726 5724 5723 5723 5722 5722 5721 5718 5718 5717 5716 5716 5716 5716 5716
5788 5784 5783 5787 5790 5785 5776 5767 5766 5766 5758 5750 5745 5741 5737 5734 5733 5734 5734 5733 5734 5735 5734 5734 5736 5735 5734 5732 5732 5731 5729 5729 5728 5727 5725 5722 5721 5720 5720 5720 5717 5716 5717 5716 5716 5714 5714 5713 5713
5781 5783 5782 5781 5785 5779 5772 5767 5765 5762 5755 5748 5744 5740 5735 5732 5730 5732 5731 5731 5731 5732 5733 5732 5732 5733 5732 5731 5729 5728 5727 5727 5726 5725 5722 5721 5720 5719 5719 5717 5714 5715 5715 5713 5711 5709 5709 5710 5710
5785 5780 5777 5780 5782 5774 5769 5764 5762 5760 5753 5747 5743 5739 5735 5732 5732 5731 5730 5729 5729 5729 5729 5730 5730 5730 5730 5730 5729 5727 5726 5725 5725 5723 5720 5719 5718 5717 5717 5717 5713 5713 5713 5710 5710 5709 5709 5709 5708
5782 5775 5777 5778 5777 5771 5766 5764 5765 5760 5754 5750 5745 5741 5737 5733 5730 5729 5728 5729 5729 5729 5728 5728 5728 5729 5730 5729 5729 5728 5727 5726 5725 5722 5718 5718 5717 5716 5716 5714 5714 5711 5709 5707 5706 5704 5706 5706 5705
5781 5778 5776 5772 5772 5771 5764 5761 5759 5759 5757 5752 5749 5746 5741 5736 5732 5730 5728 5729 5730 5729 5729 5730 5729 5728 5728 5728 5728 5726 5724 5724 5722 5720 5719 5717 5716 5715 5714 5712 5712 5709 5709 5707 5704 5702 5701 5702 5703
5776 5785 5778 5771 5763 5766 5761 5753 5760 5759 5754 5751 5749 5746 5744 5741 5738 5734 5731 5729 5729 5729 5730 5729 5727 5727 5727 5727 5728 5726 5724 5723 5723 5722 5720 5717 5715 5714 5712 5710 5709 5708 5708 5705 5704 5703 5700 5698 5699
5780 5782 5778 5772 5766 5762 5764 5755 5765 5762 5753 5753 5753 5751 5749 5746 5742 5738 5736 5733 5732 5732 5731 5730 5728 5727 5727 5727 5726 5725 5726 5725 5724 5722 5718 5717 5715 5713 5711 5709 5707 5706 5706 5703 5701 5699 5697 5698 5696
5782 5776 5772 5771 5769 5753 5761 5754 5759 5767 5764 5762 5759 5756 5753 5750 5747 5743 5741 5738 5736 5735 5733 5731 5728 5726 5726 5726 5726 5725 5724 5723 5721 5719 5718 5717 5715 5713 5710 5709 5706 5705 5704 5701 5699 5696 5695 5694 5691
5777 5766 5756 5752 5752 5755 5764 5756 5764 5778 5778 5772 5766 5761 5758 5755 5750 5746 5742 5739 5737 5736 5735 5733 5729 5726 5727 5726 5725 5725 5724 5722 5720 5720 5718 5717 5716 5714 5709 5709 5705 5704 5701 5698 5696 5694 5693 5691 5687
5775 5770 5751 5739 5745 5758 5761 5756 5774 5783 5782 5779 5774 5769 5763 5759 5755 5750 5747 5743 5741 5739 5737 5735 5731 5729 5728 5727 5725 5725 5724 5724 5724 5720 5720 5717 5717 5715 5710 5707 5704 5701 5699 5697 5694 5694 5691 5688 5685
5771 5772 5779 5762 5759 5751 5764 5769 5778 5780 5776 5774 5772 5768 5764 5762 5759 5755 5752 5749 5746 5743 5740 5738 5734 5732 5730 5728 5726 5725 5724 5724 5722 5719 5717 5717 5714 5712 5708 5705 5703 5700 5697 5695 5692 5692 5688 5685 5683
5782 5781 5766 5757 5739 5740 5756 5763 5769 5771 5771 5773 5772 5770 5767 5766 5764 5760 5756 5754 5751 5749 5745 5742 5739 5735 5732 5730 5728 5727 5724 5722 5720 5718 5716 5714 5712 5709 5706 5704 5701 5698 5695 5692 5690 5689 5686 5682 5679
5768 5767 5766 5766 5759 5745 5741 5759 5785 5781 5780 5777 5775 5775 5772 5769 5767 5764 5760 5758 5755 5752 5748 5744 5741 5738 5734 5733 5730 5728 5725 5722 5719 5717 5715 5712 5710 5707 5704 5701 5699 5696 5693 5690 5687 5687 5683 5679 5677
5777 5773 5767 5751 5749 5752 5750 5763 5791 5789 5787 5783 5780 5778 5777 5774 5771 5768 5765 5760 5757 5753 5750 5746 5744 5741 5738 5735 5731 5728 5725 5723 5720 5717 5714 5711 5708 5705 5702 5699 5696 5694 5692 5688 5685 5683 5681 5677 5674